Location: Caixon
(43.4106°N, 0.0273°E)
Time: 16:19:18
(UTC+00:00)

Sich 1 Rocket - Pass Details

Date: 16 October 2021
Orbit: 617 x 651 km, 82.5° (Epoch: 28 November)

Event Time Altitude Azimuth Distance (km) Brightness Sun altitude
Rises 04:26:42 0° 349° (NNW) 2,901 7.0 -20.4°
Reaches altitude 10° 04:28:56 10° 346° (NNW) 1,992 6.1 -20.0°
Maximum altitude 04:33:18 67° 265° (W) 674 3.4 -19.2°
Drops below altitude 10° 04:37:41 10° 183° (S) 1,988 6.1 -18.4°
Sets 04:39:55 0° 180° (S) 2,895 7.0 -18.0°
